Change the Weather History Date:

Sunday, March 10, 2013

  Actual Average Record
Temperature  
Mean Temperature 34 °F -  
Max Temperature 43 °F 52 °F 80 °F (1986)
Min Temperature 24 °F 28 °F 1 °F (1998)
Degree Days  
Heating Degree Days 32    
Moisture  
Dew Point 27 °F    
Average Humidity 87    
Maximum Humidity 100    
Minimum Humidity 80    
Precipitation  
Precipitation 0.00 in - - ()
Sea Level Pressure  
Sea Level Pressure 29.81 in    
Wind  
Wind Speed 17 mph (NNW)    
Max Wind Speed 25 mph    
Max Gust Speed 36 mph    
Visibility 7 miles    
Events Rain , Snow    
Averages and records for this station are not official NWS values.
T = Trace of Precipitation, MM = Missing Value Source: NWS Daily Summary

Daily Weather History Graph

Daily Weather History Graph

Search for Another Location

Airport or City:

Trip Planner

Search our weather history database for the weather conditions in past years. The results will help you decide how hot, cold, wet, or windy it might be!

Date:

Astronomy

Mar. 10, 2013 Rise Set
Actual Time 7:41 AM CDT 7:24 PM CDT
Civil Twilight 7:14 AM CDT 7:51 PM CDT
Nautical Twilight 6:43 AM CDT 8:22 PM CDT
Astronomical Twilight 6:11 AM CDT 8:54 PM CDT
Moon 6:42 AM CDT (3/10) 6:33 PM CDT (3/10)
Length of Visible Light 12h 36m
Length of Day
11h 42m
Waning Crescent, 2% of the Moon is Illuminated
Mar 10
Waning Crescent
Mar 11
New
Mar 19
First Quarter
Mar 27
Full
Apr 2
Last Quarter

Hourly Weather History & Observations

Time (CDT) Temp. Windchill Dew Point Humidity Pressure Visibility Wind Dir Wind Speed Gust Speed Precip Events Conditions
12:53 AM 43.0 °F 37.7 °F 39.9 °F 89% 29.64 in 5.0 mi North 9.2 mph - N/A   Overcast
1:53 AM 42.1 °F 33.9 °F 39.0 °F 89% 29.64 in 10.0 mi North 17.3 mph 23.0 mph N/A   Overcast
3:53 AM 39.2 °F 30.5 °F 37.4 °F 93% 29.62 in 8.0 mi North 16.1 mph 25.3 mph N/A   Overcast
4:53 AM 37.0 °F 27.0 °F 34.0 °F 89% 29.65 in 6.0 mi North 18.4 mph 29.9 mph N/A   Overcast
5:53 AM 36.0 °F 26.3 °F 34.0 °F 93% 29.72 in 6.0 mi North 16.1 mph 21.9 mph N/A   Overcast
6:53 AM 35.6 °F 24.8 °F 33.8 °F 93% 29.69 in 6.0 mi North 19.6 mph 29.9 mph N/A   Overcast
7:53 AM 35.1 °F 24.8 °F 33.1 °F 92% 29.74 in 5.0 mi North 17.3 mph 26.5 mph 0.00 in Rain Light Rain
8:53 AM 34.0 °F 22.7 °F 32.0 °F 92% 29.75 in 6.0 mi North 19.6 mph 27.6 mph 0.00 in   Overcast
9:53 AM 34.0 °F 23.4 °F 30.9 °F 89% 29.77 in 4.0 mi North 17.3 mph 23.0 mph N/A   Overcast
10:32 AM 33.8 °F 22.5 °F 30.2 °F 87% 29.76 in 2.0 mi North 19.6 mph 27.6 mph 0.00 in   Overcast
10:53 AM 33.1 °F 21.5 °F 30.9 °F 92% 29.76 in 1.5 mi North 19.6 mph 27.6 mph 0.00 in Snow Light Snow
11:11 AM 32.0 °F 20.1 °F 30.2 °F 93% 29.77 in 2.0 mi North 19.6 mph 29.9 mph 0.00 in   Overcast
11:30 AM 32.0 °F 19.5 °F 32.0 °F 100% 29.76 in 2.5 mi North 21.9 mph 29.9 mph 0.00 in Rain Light Freezing Rain
11:45 AM 32.0 °F 19.2 °F 30.2 °F 93% 29.76 in 3.0 mi North 23.0 mph 33.4 mph 0.00 in Rain Light Freezing Rain
11:53 AM 32.0 °F 20.5 °F 30.9 °F 96% 29.78 in 3.0 mi North 18.4 mph 33.4 mph 0.00 in Rain Light Freezing Rain
12:33 PM 32.0 °F 19.8 °F 30.2 °F 93% 29.78 in 4.0 mi North 20.7 mph 31.1 mph 0.00 in Snow Light Snow
12:44 PM 32.0 °F 18.9 °F 30.2 °F 93% 29.78 in 4.0 mi North 24.2 mph 31.1 mph 0.00 in   Overcast
12:53 PM 32.0 °F 20.5 °F 28.9 °F 88% 29.80 in 5.0 mi North 18.4 mph 35.7 mph 0.00 in   Overcast
1:53 PM 32.0 °F 19.5 °F 28.0 °F 85% 29.78 in 7.0 mi NNW 21.9 mph 31.1 mph 0.00 in   Overcast
2:53 PM 30.9 °F 19.4 °F 26.1 °F 82% 29.79 in 9.0 mi NNW 17.3 mph 31.1 mph N/A   Overcast
3:02 PM 30.2 °F 18.9 °F 26.6 °F 86% 29.78 in 10.0 mi NNW 16.1 mph 31.1 mph N/A   Overcast
3:53 PM 30.9 °F 19.1 °F 26.1 °F 82% 29.82 in 10.0 mi NNW 18.4 mph 28.8 mph N/A   Overcast
4:53 PM 30.0 °F 16.6 °F 25.0 °F 82% 29.84 in 6.0 mi NNW 23.0 mph 29.9 mph 0.00 in   Overcast
5:53 PM 28.9 °F 15.8 °F 24.1 °F 82% 29.86 in 10.0 mi NNW 20.7 mph 34.5 mph 0.00 in   Overcast
6:53 PM 27.0 °F 13.5 °F 23.0 °F 85% 29.88 in 10.0 mi NNW 19.6 mph 31.1 mph 0.00 in   Overcast
7:35 PM 26.6 °F 11.4 °F 23.0 °F 86% 29.86 in 6.0 mi NW 25.3 mph 34.5 mph 0.00 in Snow Light Snow
7:53 PM 26.1 °F 13.1 °F 21.9 °F 84% 29.90 in 6.0 mi NW 17.3 mph 24.2 mph 0.00 in Snow Light Snow
8:53 PM 25.0 °F 10.9 °F 21.0 °F 85% 29.92 in 7.0 mi NW 19.6 mph 32.2 mph 0.00 in Snow Light Snow
9:53 PM 25.0 °F 12.2 °F 19.9 °F 81% 29.94 in 10.0 mi NW 16.1 mph 28.8 mph 0.00 in   Overcast
10:34 PM 24.8 °F 11.5 °F 21.2 °F 86% 29.91 in 10.0 mi NW 17.3 mph 28.8 mph 0.00 in   Overcast
10:44 PM 24.8 °F 10.7 °F 19.4 °F 80% 29.91 in 10.0 mi NW 19.6 mph 28.8 mph 0.00 in   Overcast
10:53 PM 25.0 °F 10.2 °F 19.9 °F 81% 29.94 in 10.0 mi NW 21.9 mph 28.8 mph 0.00 in   Overcast
11:26 PM 24.8 °F 11.5 °F 19.4 °F 80% 29.91 in 10.0 mi NW 17.3 mph 26.5 mph N/A   Overcast
11:34 PM 24.8 °F 10.7 °F 19.4 °F 80% 29.91 in 10.0 mi NW 19.6 mph 32.2 mph N/A   Overcast
11:45 PM 24.8 °F 11.1 °F 19.4 °F 80% 29.91 in 10.0 mi NW 18.4 mph 26.5 mph N/A   Overcast
11:53 PM 25.0 °F 12.2 °F 19.9 °F 81% 29.94 in 10.0 mi NW 16.1 mph 26.5 mph N/A   Overcast
12:01 AM 24.8 °F 11.1 °F 19.4 °F 80% 29.91 in 10.0 mi NW 18.4 mph 27.6 mph N/A   Overcast
12:09 AM 24.8 °F 10.3 °F 19.4 °F 80% 29.90 in 10.0 mi NW 20.7 mph 27.6 mph N/A   Overcast
12:53 AM 25.0 °F 12.2 °F 21.0 °F 85% 29.94 in 10.0 mi NW 16.1 mph 24.2 mph N/A   Overcast